Location: Boiro
(42.6475°N, 8.8834°W)
Time: 08:21:58
(UTC+02:00)

NANOSAT C BR1 - Pass Details

Date: 25 August 2022
Orbit: 582 x 600 km, 98.0° (Epoch: 25 September)

Event Time Altitude Azimuth Distance (km) Brightness Sun altitude
Rises 06:20:19 0° 350° (N) 2,829 ? -16.3°
Reaches altitude 10° 06:24:09 10° 314° (NW) 1,916 ? -15.7°
Maximum altitude 06:25:11 11° 299° (WNW) 1,860 ? -15.6°
Enters shadow 06:25:28 11° 295° (WNW) 1,863 ? -15.5°
